TimeCDT,TemperatureF,Dew PointF,Humidity,Sea Level PressureIn,VisibilityMPH,Wind Direction,Wind SpeedMPH,Gust SpeedMPH,PrecipitationIn,Events,Conditions,WindDirDegrees,DateUTC
12:05 AM,78.8,73.4,83,29.94,10.0,East,8.1,-,N/A,,Mostly Cloudy,80,2013-08-18 05:05:00
12:53 AM,77.0,73.9,90,29.95,10.0,ENE,4.6,-,N/A,,Mostly Cloudy,60,2013-08-18 05:53:00
1:53 AM,77.0,73.0,88,29.93,10.0,ENE,3.5,-,N/A,,Mostly Cloudy,70,2013-08-18 06:53:00
2:53 AM,78.1,73.9,87,29.93,10.0,NE,6.9,-,N/A,,Mostly Cloudy,50,2013-08-18 07:53:00
3:53 AM,77.0,73.9,90,29.93,10.0,NE,12.7,-,N/A,,Mostly Cloudy,40,2013-08-18 08:53:00
4:53 AM,77.0,73.9,90,29.93,10.0,NE,12.7,-,N/A,,Mostly Cloudy,40,2013-08-18 09:53:00
5:53 AM,75.9,73.0,91,29.93,10.0,NNE,13.8,-,N/A,,Mostly Cloudy,20,2013-08-18 10:53:00
6:18 AM,75.2,73.4,94,29.92,10.0,NNE,15.0,-,N/A,,Mostly Cloudy,30,2013-08-18 11:18:00
6:50 AM,75.2,73.4,94,29.93,10.0,NE,15.0,-,N/A,,Overcast,50,2013-08-18 11:50:00
6:53 AM,75.9,73.0,91,29.94,10.0,NE,17.3,23.0,N/A,,Overcast,40,2013-08-18 11:53:00
7:03 AM,75.2,71.6,89,29.93,10.0,NE,17.3,26.5,N/A,,Overcast,40,2013-08-18 12:03:00
7:53 AM,75.9,72.0,87,29.95,10.0,NNE,12.7,20.7,N/A,,Overcast,20,2013-08-18 12:53:00
8:53 AM,75.9,72.0,87,29.97,10.0,NNE,17.3,24.2,N/A,,Overcast,20,2013-08-18 13:53:00
9:10 AM,77.0,71.6,83,29.96,10.0,NNE,17.3,-,N/A,,Mostly Cloudy,20,2013-08-18 14:10:00
9:53 AM,79.0,72.0,79,29.98,10.0,NNE,17.3,-,N/A,,Mostly Cloudy,20,2013-08-18 14:53:00
10:53 AM,80.1,71.1,74,29.99,10.0,North,17.3,20.7,N/A,,Mostly Cloudy,10,2013-08-18 15:53:00
11:53 AM,81.0,71.1,72,29.99,10.0,North,13.8,-,N/A,,Overcast,10,2013-08-18 16:53:00
12:53 PM,82.0,72.0,71,29.99,10.0,NNW,12.7,-,N/A,,Overcast,340,2013-08-18 17:53:00
1:53 PM,80.1,71.1,74,29.99,10.0,North,10.4,-,N/A,,Overcast,360,2013-08-18 18:53:00
2:53 PM,81.0,73.0,77,29.99,10.0,North,9.2,-,N/A,,Overcast,360,2013-08-18 19:53:00
3:02 PM,80.6,71.6,74,29.98,10.0,NNE,5.8,-,N/A,,Overcast,20,2013-08-18 20:02:00
3:53 PM,81.0,72.0,74,29.99,10.0,NNE,4.6,-,N/A,,Overcast,30,2013-08-18 20:53:00
4:53 PM,82.0,72.0,71,29.99,10.0,Calm,Calm,-,N/A,,Overcast,0,2013-08-18 21:53:00
5:53 PM,82.0,72.0,71,29.99,10.0,WNW,6.9,-,N/A,,Mostly Cloudy,290,2013-08-18 22:53:00
6:53 PM,80.1,72.0,76,29.98,10.0,NW,5.8,-,N/A,,Mostly Cloudy,310,2013-08-18 23:53:00
7:53 PM,80.1,72.0,76,29.99,10.0,North,5.8,-,N/A,,Mostly Cloudy,350,2013-08-19 00:53:00
8:53 PM,79.0,72.0,79,30.00,10.0,North,5.8,-,N/A,,Mostly Cloudy,350,2013-08-19 01:53:00
9:53 PM,78.1,72.0,81,30.01,10.0,North,4.6,-,N/A,,Mostly Cloudy,10,2013-08-19 02:53:00
10:53 PM,75.9,72.0,87,30.02,10.0,NNE,4.6,-,N/A,,Scattered Clouds,20,2013-08-19 03:53:00
11:53 PM,75.9,72.0,87,30.01,10.0,NNE,5.8,-,N/A,,Scattered Clouds,20,2013-08-19 04:53:00